Flag for Germany Weather past 2 weeks in Kehl, Baden-Württemberg, Germany

Now
57 °F

Overcast.


Feels Like: 53 °F
Forecast: 41 / 48 °F
Wind: 23 mph from Southwest

Location: Strasbourg Airport

Current Time: Mar 31, 2015 at 9:12:44 AM

Latest Report: Mar 31, 2015 at 8:30 AM


Visibility: N/A

Pressure: 29.68 "Hg

Humidity: 63%

Dew point: 45 °F

Location of KehlLocation

Historic Weather in Kehl — Graph

°F

Kehl temperature yesterday

Maximum temperature yesterday: 55 °F (at 12:00 AM)
Minimum temperature yesterday: 46 °F (at 1:00 PM)
Average temperature yesterday: 51 °F

Past Weeks' High & Low Weather Summary

 TemperatureHumidityPressure
High66 °F (Mar 18, 3:00 PM)93% (Mar 16, 7:30 AM)30.27 "Hg (Mar 16, 7:30 AM)
Low32 °F (Mar 21, 5:00 AM)30% (Mar 20, 4:00 PM)29.62 "Hg (Mar 29, 10:30 PM)
Average48 °F68%30.01 "Hg
* Reported Mar 16 6:00 AM — Mar 31 7:30 AM, Kehl, Weather by CustomWeather, © 2015

Note: Actual official high and low records may vary slightly from our data, if they occured in-between our weather recording intervals... More about our weather records

Advertising

Kehl weather history for previous 24 hours

 ConditionsComfort  
Time TempWeatherWind HumidityBarometerVisibility
7:30 AM
Tue, Mar 31
57 °FOvercast.22 mph67%29.68 "HgN/A
7:00 AM57 °FMostly cloudy.22 mph67%29.68 "HgN/A
6:30 AM59 °FOvercast.22 mph63%29.71 "HgN/A
6:00 AM59 °FOvercast.18 mph68%29.68 "HgN/A
5:30 AM55 °FOvercast.20 mph77%29.68 "HgN/A
4:30 AM54 °FOvercast.20 mph82%29.71 "HgN/A
4:00 AM52 °FOvercast.18 mph82%29.74 "HgN/A
3:30 AM52 °FLight rain. Overcast.20 mph77%29.77 "HgN/A
3:00 AM52 °FOvercast.22 mph77%29.77 "HgN/A
2:30 AM52 °FOvercast.17 mph72%29.80 "HgN/A
1:30 AM52 °FOvercast.13 mph67%29.86 "HgN/A
1:00 AM50 °FOvercast.10 mph67%29.89 "HgN/A
12:30 AM50 °FPartly cloudy.10 mph62%29.92 "HgN/A
12:00 AM50 °FClear.8 mph62%29.92 "HgN/A
11:00 PM
Mon, Mar 30
48 °FPartly cloudy.5 mph62%29.95 "HgN/A
10:30 PM50 °FClear.8 mph54%29.95 "HgN/A
10:00 PM50 °FPassing clouds.9 mph54%29.98 "HgN/A
9:30 PM50 °FPartly cloudy.9 mph54%29.95 "HgN/A
9:00 PM50 °FPassing clouds.7 mph54%29.98 "HgN/A
8:30 PM52 °FMostly cloudy.7 mph50%29.98 "HgN/A
8:00 PM52 °FClear.10 mph47%29.95 "HgN/A
7:30 PM54 °FClear.12 mph44%29.95 "HgN/A
7:00 PM54 °FMostly cloudy.13 mph41%29.92 "HgN/A
6:30 PM55 °FPartly sunny.14 mph41%29.92 "HgN/A
6:00 PM54 °FPartly sunny.14 mph47%29.92 "HgN/A
5:30 PM54 °FPartly sunny.16 mph47%29.89 "HgN/A
5:00 PM54 °FClear.17 mph47%29.89 "HgN/A
4:30 PM55 °FBroken clouds.23 mph47%29.86 "HgN/A
4:00 PM54 °FPartly sunny.16 mph51%29.86 "HgN/A
3:30 PM54 °FBroken clouds.21 mph51%29.86 "HgN/A
3:00 PM54 °FPassing clouds.17 mph58%29.86 "HgN/A
2:30 PM52 °FClear.20 mph62%29.83 "HgN/A
2:00 PM52 °FBroken clouds.18 mph62%29.83 "HgN/A
1:30 PM48 °FPartly sunny.26 mph71%29.83 "HgN/A
1:00 PM46 °FLight rain. Partly sunny.21 mph82%29.80 "Hg6 mi
12:30 PM52 °FMostly cloudy.12 mph67%29.77 "HgN/A
12:00 PM50 °FLight rain. Mostly cloudy.15 mph71%29.77 "HgN/A
11:30 AM52 °FBroken clouds.18 mph62%29.77 "HgN/A
11:00 AM52 °FMostly cloudy.14 mph62%29.74 "HgN/A
10:30 AM52 °FBroken clouds.18 mph62%29.74 "HgN/A
10:00 AM52 °FBroken clouds.17 mph67%29.71 "HgN/A
9:30 AM50 °FPartly sunny.21 mph71%29.71 "HgN/A
9:00 AM50 °FMostly cloudy.15 mph71%29.68 "HgN/A
Weather by CustomWeather, © 2015

See weather overviewHow to use our weather pages